Flag for Pakistan Weather past 2 weeks in Rawalpindi, Pakistan

Now
52 °F

Passing clouds.


Feels Like: 52 °F
Forecast: 45 / 65 °F
Wind: No wind

Location: Islamabad Airport

Current Time: Dec 22, 2014 at 7:36:27 PM

Latest Report: Dec 22, 2014 at 7:00 PM


Visibility: 1 mi

Pressure: 30.01 "Hg

Humidity: 72%

Dew point: 43 °F

Location of RawalpindiLocation

Historic Weather in Rawalpindi — Graph

°F

Rawalpindi temperature yesterday

Maximum temperature yesterday: 63 °F (at 2:00 PM)
Minimum temperature yesterday: 39 °F (at 7:00 AM)
Average temperature yesterday: 50 °F

Past Weeks' High & Low Weather Summary

 TemperatureHumidityPressure
High72 °F (Dec 8, 3:00 PM)100% (Dec 19, 4:00 AM)30.27 "Hg (Dec 19, 4:00 AM)
Low37 °F (Dec 18, 7:00 AM)29% (Dec 7, 4:00 PM)29.98 "Hg (Dec 7, 4:00 PM)
Average52 °F70%30.11 "Hg
* Reported Dec 7 4:00 PM — Dec 22 4:00 PM, Rawalpindi, Weather by CustomWeather, © 2014

Note: Actual official high and low records may vary slightly from our data, if they occured in-between our weather recording intervals... More about our weather records

Advertising

Rawalpindi weather history for previous 24 hours

 ConditionsComfort  
Time TempWeatherWind HumidityBarometerVisibility
4:00 PM
Dec 22
57 °FScattered clouds.No wind55%30.01 "Hg1 mi
3:00 PM57 °FBroken clouds.No wind55%29.98 "Hg1 mi
2:00 PM55 °FBroken clouds.5 mph63%30.01 "Hg1 mi
1:00 PM52 °FBroken clouds.5 mph77%30.01 "Hg1 mi
12:00 PM52 °FFog.No wind77%30.04 "Hg1 mi
11:00 AM50 °FFog.No wind82%30.07 "Hg1 mi
10:00 AM48 °FFog.No wind87%30.09 "Hg1 mi
9:00 AM45 °FFog.No wind87%30.07 "Hg1 mi
8:00 AM43 °FFog.No wind87%30.04 "Hg1 mi
7:00 AM43 °FFog.No wind87%30.04 "Hg1 mi
6:00 AM43 °FFog.No wind87%30.01 "Hg1 mi
5:00 AM43 °FFog.No wind87%30.01 "Hg1 mi
4:00 AM45 °FFog.No wind87%30.04 "Hg1 mi
3:00 AM45 °FFog.No wind87%30.07 "Hg1 mi
2:00 AM46 °FFog.No wind87%30.07 "Hg1 mi
1:00 AM46 °FFog.No wind87%30.07 "Hg1 mi
12:00 AM46 °FFog.No wind87%30.09 "Hg1 mi
11:00 PM
Dec 21
46 °FFog.No wind87%30.09 "Hg1 mi
10:00 PM48 °FFog.No wind87%30.09 "Hg1 mi
9:00 PM50 °FFog.No wind82%30.09 "Hg1 mi
8:00 PM52 °FPassing clouds.No wind77%30.07 "Hg1 mi
7:00 PM52 °FPassing clouds.5 mph77%30.07 "Hg1 mi
Weather by CustomWeather, © 2014

See weather overviewHow to use our weather pages